• In Hungary
  • List of Countries
  • For 7 days
  • Water Temperature
  • Satellite Maps
  • Weather Map
  • News
  • Weather Widgets
  • user-avatar
    Login

    Hourly Weather Srodborze

    Today, 24 September, Monday

    Time Temperature Precipitation Wind Pressure Humidity
    00:00 +8°C° 1.9 mm 5 mps 742 mmHg 92%
    01:00 +8°C° 0 mm 7 mps 741 mmHg 90%
    02:00 +8°C° 1.1 mm 7 mps 742 mmHg 88%
    03:00 +8°C° 1.1 mm 7 mps 743 mmHg 87%
    04:00 +6°C° 1.1 mm 7 mps 744 mmHg 86%
    05:00 +8°C° 0.2 mm 7 mps 745 mmHg 85%
    06:00 +8°C° 0.2 mm 7 mps 746 mmHg 84%
    07:00 +7°C° 0 mm 8 mps 747 mmHg 83%
    08:00 +9°C° 0.1 mm 8 mps 747 mmHg 78%
    09:00 +10°C° 0.1 mm 9 mps 748 mmHg 73%
    10:00 +11°C° 0.1 mm 9 mps 748 mmHg 68%
    11:00 +11°C° 0.2 mm 9 mps 749 mmHg 64%
    12:00 +11°C° 0.2 mm 9 mps 749 mmHg 61%
    13:00 +12°C° 0.2 mm 9 mps 750 mmHg 58%
    14:00 +11°C° 0.3 mm 8 mps 750 mmHg 59%
    15:00 +11°C° 0.3 mm 8 mps 751 mmHg 60%
    16:00 +10°C° 0.3 mm 7 mps 751 mmHg 62%
    17:00 +9°C° 0.1 mm 6 mps 752 mmHg 64%
    18:00 +8°C° 0.1 mm 5 mps 753 mmHg 67%
    19:00 +7°C° 0.1 mm 5 mps 753 mmHg 70%
    20:00 +7°C° 0 mm 5 mps 754 mmHg 70%
    21:00 +6°C° 0 mm 5 mps 754 mmHg 70%
    22:00 +6°C° 0 mm 5 mps 755 mmHg 71%
    23:00 +6°C° 0 mm 5 mps 756 mmHg 72%

    Tomorrow, 25 September, Tuesday

    Time Temperature Precipitation Wind Pressure Humidity
    00:00 +6°C° 0 mm 5 mps 756 mmHg 72%
    01:00 +6°C° 0 mm 5 mps 757 mmHg 73%
    02:00 +5°C° 0 mm 5 mps 757 mmHg 75%
    03:00 +5°C° 0 mm 5 mps 757 mmHg 76%
    04:00 +5°C° 0 mm 5 mps 758 mmHg 77%
    05:00 +5°C° 0 mm 5 mps 758 mmHg 75%
    06:00 +6°C° 0 mm 5 mps 759 mmHg 74%
    07:00 +5°C° 0 mm 6 mps 760 mmHg 72%
    08:00 +8°C° 0.1 mm 6 mps 760 mmHg 66%
    09:00 +9°C° 0.1 mm 7 mps 761 mmHg 60%
    10:00 +10°C° 0.1 mm 7 mps 762 mmHg 54%
    11:00 +10°C° 0.1 mm 7 mps 762 mmHg 52%
    12:00 +11°C° 0.1 mm 7 mps 762 mmHg 50%
    13:00 +11°C° 0.1 mm 7 mps 763 mmHg 48%
    14:00 +11°C° 0 mm 7 mps 763 mmHg 48%
    15:00 +11°C° 0 mm 6 mps 763 mmHg 48%
    16:00 +10°C° 0 mm 6 mps 764 mmHg 48%
    17:00 +9°C° 0 mm 5 mps 764 mmHg 53%
    18:00 +8°C° 0 mm 4 mps 765 mmHg 57%
    19:00 +7°C° 0 mm 3 mps 765 mmHg 61%
    20:00 +7°C° 0 mm 3 mps 766 mmHg 62%
    21:00 +6°C° 0 mm 2 mps 766 mmHg 62%
    22:00 +6°C° 0 mm 2 mps 766 mmHg 62%
    23:00 +6°C° 0 mm 2 mps 766 mmHg 62%

    Day after tomorrow, 26 September, Wednesday

    Time Temperature Precipitation Wind Pressure Humidity
    00:00 +6°C° 0 mm 2 mps 766 mmHg 62%
    01:00 +5°C° 0 mm 2 mps 767 mmHg 62%
    02:00 +4°C° 0 mm 3 mps 766 mmHg 65%
    03:00 +4°C° 0 mm 3 mps 766 mmHg 69%
    04:00 +4°C° 0 mm 3 mps 766 mmHg 73%
    05:00 +4°C° 0 mm 3 mps 766 mmHg 72%
    06:00 +5°C° 0 mm 4 mps 766 mmHg 72%
    07:00 +6°C° 0 mm 4 mps 766 mmHg 71%
    08:00 +7°C° 0 mm 5 mps 766 mmHg 64%
    09:00 +9°C° 0 mm 6 mps 765 mmHg 58%
    10:00 +11°C° 0 mm 7 mps 765 mmHg 51%
    11:00 +12°C° 0 mm 7 mps 765 mmHg 49%
    12:00 +12°C° 0 mm 7 mps 764 mmHg 47%
    13:00 +13°C° 0 mm 8 mps 764 mmHg 45%
    14:00 +12°C° 0.1 mm 7 mps 763 mmHg 49%
    15:00 +11°C° 0.1 mm 6 mps 762 mmHg 53%
    16:00 +10°C° 0.1 mm 6 mps 762 mmHg 56%
    17:00 +10°C° 0.1 mm 6 mps 762 mmHg 59%
    18:00 +10°C° 0.1 mm 6 mps 761 mmHg 61%
    19:00 +10°C° 0.1 mm 6 mps 761 mmHg 63%
    20:00 +10°C° 0 mm 6 mps 760 mmHg 59%
    21:00 +10°C° 0 mm 7 mps 760 mmHg 55%
    22:00 +11°C° 0 mm 7 mps 759 mmHg 52%
    23:00 +11°C° 0 mm 7 mps 759 mmHg 53%

    27 September, Thursday

    Time Temperature Precipitation Wind Pressure Humidity
    00:00 +11°C° 0 mm 7 mps 759 mmHg 54%
    01:00 +11°C° 0 mm 7 mps 758 mmHg 54%
    02:00 +11°C° 0 mm 7 mps 758 mmHg 57%
    03:00 +10°C° 0 mm 7 mps 758 mmHg 59%
    04:00 +10°C° 0 mm 7 mps 758 mmHg 62%
    05:00 +10°C° 0 mm 7 mps 758 mmHg 64%
    06:00 +10°C° 0 mm 7 mps 758 mmHg 67%
    07:00 +11°C° 0 mm 7 mps 758 mmHg 69%
    08:00 +12°C° 0 mm 8 mps 758 mmHg 68%
    09:00 +13°C° 0 mm 8 mps 758 mmHg 67%
    10:00 +16°C° 0 mm 8 mps 758 mmHg 66%
    11:00 +16°C° 0 mm 8 mps 758 mmHg 66%
    12:00 +17°C° 0 mm 8 mps 758 mmHg 65%
    13:00 +18°C° 0 mm 8 mps 757 mmHg 64%
    14:00 +18°C° 0 mm 7 mps 757 mmHg 66%
    15:00 +17°C° 0 mm 7 mps 757 mmHg 67%
    16:00 +17°C° 0 mm 6 mps 757 mmHg 69%
    17:00 +16°C° 0 mm 5 mps 757 mmHg 72%
    18:00 +16°C° 0 mm 5 mps 757 mmHg 75%
    19:00 +15°C° 0 mm 4 mps 757 mmHg 79%
    20:00 +14°C° 0 mm 4 mps 757 mmHg 82%
    21:00 +14°C° 0 mm 4 mps 757 mmHg 85%
    22:00 +13°C° 0 mm 4 mps 757 mmHg 88%
    23:00 +13°C° 0 mm 4 mps 756 mmHg 88%

    28 September, Friday

    Time Temperature Precipitation Wind Pressure Humidity
    00:00 +13°C° 0 mm 4 mps 756 mmHg 88%
    01:00 +13°C° 0 mm 5 mps 755 mmHg 88%
    02:00 +13°C° 0 mm 5 mps 755 mmHg 88%
    03:00 +13°C° 0 mm 5 mps 754 mmHg 88%
    04:00 +13°C° 0 mm 5 mps 754 mmHg 88%
    05:00 +13°C° 0 mm 5 mps 754 mmHg 86%
    06:00 +14°C° 0 mm 6 mps 753 mmHg 84%
    07:00 +14°C° 0 mm 6 mps 753 mmHg 82%
    08:00 +15°C° 0 mm 6 mps 753 mmHg 76%
    09:00 +16°C° 0 mm 6 mps 753 mmHg 71%
    10:00 +17°C° 0 mm 6 mps 754 mmHg 66%
    11:00 +17°C° 0 mm 6 mps 754 mmHg 65%
    12:00 +17°C° 0 mm 6 mps 754 mmHg 63%
    13:00 +17°C° 0 mm 6 mps 754 mmHg 62%
    14:00 +17°C° 0 mm 5 mps 754 mmHg 61%
    15:00 +16°C° 0 mm 5 mps 754 mmHg 60%
    16:00 +15°C° 0 mm 4 mps 754 mmHg 59%
    17:00 +14°C° 0 mm 4 mps 754 mmHg 63%
    18:00 +12°C° 0 mm 3 mps 754 mmHg 66%
    19:00 +11°C° 0 mm 3 mps 755 mmHg 69%
    20:00 +11°C° 0 mm 3 mps 755 mmHg 69%
    21:00 +11°C° 0 mm 3 mps 755 mmHg 70%
    22:00 +10°C° 0 mm 3 mps 756 mmHg 70%
    23:00 +10°C° 0 mm 3 mps 756 mmHg 72%

    29 September, Saturday

    Time Temperature Precipitation Wind Pressure Humidity
    00:00 +10°C° 0 mm 2 mps 756 mmHg 73%
    01:00 +10°C° 0 mm 2 mps 756 mmHg 75%
    02:00 +9°C° 0 mm 2 mps 756 mmHg 78%
    03:00 +8°C° 0 mm 2 mps 757 mmHg 81%
    04:00 +7°C° 0 mm 2 mps 757 mmHg 83%
    05:00 +7°C° 0 mm 2 mps 757 mmHg 81%
    06:00 +7°C° 0 mm 3 mps 758 mmHg 79%
    07:00 +8°C° 0 mm 3 mps 758 mmHg 77%
    08:00 +9°C° 0 mm 3 mps 759 mmHg 67%
    09:00 +10°C° 0 mm 3 mps 759 mmHg 58%
    10:00 +12°C° 0 mm 3 mps 760 mmHg 49%
    11:00 +12°C° 0 mm 3 mps 760 mmHg 47%
    12:00 +12°C° 0 mm 3 mps 760 mmHg 44%
    13:00 +13°C° 0 mm 3 mps 760 mmHg 41%
    14:00 +13°C° 0 mm 3 mps 760 mmHg 42%
    15:00 +13°C° 0 mm 2 mps 760 mmHg 43%
    16:00 +13°C° 0 mm 2 mps 760 mmHg 44%
    17:00 +12°C° 0 mm 2 mps 760 mmHg 48%
    18:00 +10°C° 0 mm 1 mps 761 mmHg 52%
    19:00 +9°C° 0 mm 1 mps 761 mmHg 56%
    20:00 +9°C° 0 mm 1 mps 761 mmHg 57%
    21:00 +8°C° 0 mm 1 mps 761 mmHg 58%
    22:00 +8°C° 0 mm 1 mps 761 mmHg 58%
    23:00 +8°C° 0 mm 1 mps 761 mmHg 59%
    Show more